Regional Weather Roundup
Issued by NWS

Home | Current Version | Previous Version | Graphics & Text | Print | Product List | Glossary On
Versions: 1 2 3 4 5 6 7 8 9 10 11 12 13 14 15 16 17 18 19 20 21 22 23 24 25 26 27 28 29 30 31 32 33 34 35 36 37 38 39 40 41 42 43 44 45 46 47 48 49 50
000
ASUS43 KTOP 170108
RWRKS

WEATHER ROUNDUP FOR KANSAS
NATIONAL WEATHER SERVICE GOODLAND KS
700 PM CST SAT DEC 16 2017

NOTE:  "FAIR" INDICATES FEW OR NO CLOUDS BELOW 12,000 FEET WITH NO
SIGNIFICANT WEATHER AND/OR OBSTRUCTIONS TO VISIBILITY.

KSZ001>006-013>018-027>032-041>047-170200-
NORTHWEST KANSAS

CITY           SKY/WX    TMP DP  RH WIND       PRES   REMARKS
GOODLAND       CLEAR     36  22  56 NE13      29.82R WCI  27
HAYS           CLOUDY    41  20  43 E8        29.81R
HILL CITY      CLEAR     40  20  44 NE12      29.82R WCI  33
RUSSELL        CLOUDY    44  25  47 SE12      29.80R
$$

KSZ061>065-074>080-084>089-170200-
SOUTHWEST KANSAS

CITY           SKY/WX    TMP DP  RH WIND       PRES   REMARKS
DODGE CITY     CLOUDY    50  22  33 S14       29.76S
ELKHART        CLOUDY    45  22  40 S12       29.73R
GARDEN CITY    CLOUDY    42  14  32 SE8       29.75R
GREAT BEND     CLOUDY    45  22  40 SE9       29.82R
LIBERAL        CLOUDY    46  19  34 S13       29.75R
PRATT          PTCLDY    52  24  33 S17       29.82R
$$

KSZ066>073-081>083-090>101-170200-
SOUTHEAST KANSAS

CITY           SKY/WX    TMP DP  RH WIND       PRES   REMARKS
CHANUTE        CLOUDY    50  27  40 SE8       29.95R
COFFEYVILLE    PTCLDY    53  28  38 S10       29.95S
HUTCHINSON     CLOUDY    53  28  38 S15       29.85R
MEDICINE LODGE   N/A     52  27  38 S10       29.84R
NEWTON         CLOUDY    52  26  36 S18G24    29.87R
PARSONS        CLOUDY    53  27  36 S7G16     29.95S
WICHITA INTL   CLOUDY    53  27  36 S13       29.87R
WICHITA JABRA  CLOUDY    52  26  36 S10       29.88R
WICHITA MCCONL PTCLDY    52  25  34 S10       29.88R
WINFIELD       CLOUDY    53  27  36 S12       29.91R
$$

KSZ007>012-019>026-033>040-048>060-102>105-170200-
NORTHEAST KANSAS

CITY           SKY/WX    TMP DP  RH WIND       PRES   REMARKS
CONCORDIA      CLOUDY    42  25  50 E5        29.86R
EMPORIA        CLOUDY    47  24  40 SE9       29.90S
LAWRENCE       CLOUDY    45  25  45 SE9       29.94R
MANHATTAN      CLOUDY    48  24  39 CALM      29.89R
MARYSVILLE     CLOUDY    41  27  56 SE3       29.90R
OLATHE IND     CLOUDY    45  27  49 S7        29.96R
OLATHE EXE     CLOUDY    44  27  51 S7        29.95R
SALINA         CLOUDY    49  25  39 SE9       29.85S
TOPEKA BILLARD CLOUDY    50  27  40 S5        29.92R
TOPEKA FORBES  CLOUDY    48  26  42 S7        29.91S
$$




USA.gov is the U.S. government's official web portal to all federal, state and local government web resources and services.